TimePST,TemperatureF,Dew PointF,Humidity,Sea Level PressureIn,VisibilityMPH,Wind Direction,Wind SpeedMPH,Gust SpeedMPH,PrecipitationIn,Events,Conditions,WindDirDegrees,DateUTC
12:53 AM,-0.9,-7.1,75,30.61,10.0,South,16.1,-,N/A,,Clear,170,2013-01-18 08:53:00
1:53 AM,1.0,-5.1,75,30.60,10.0,South,15.0,-,N/A,,Clear,170,2013-01-18 09:53:00
2:53 AM,-0.9,-7.1,75,30.59,10.0,South,12.7,-,N/A,,Clear,180,2013-01-18 10:53:00
3:53 AM,-5.1,-9.0,83,30.61,10.0,South,12.7,-,N/A,,Clear,170,2013-01-18 11:53:00
4:53 AM,-2.9,-8.0,79,30.66,10.0,South,15.0,-,N/A,,Clear,170,2013-01-18 12:53:00
5:53 AM,-2.9,-9.0,75,30.69,10.0,South,12.7,-,N/A,,Clear,180,2013-01-18 13:53:00
6:53 AM,-5.1,-9.9,80,30.71,10.0,South,13.8,-,N/A,,Clear,180,2013-01-18 14:53:00
7:53 AM,-0.9,-8.0,72,30.72,10.0,South,10.4,-,N/A,,Clear,180,2013-01-18 15:53:00
8:53 AM,6.1,-2.0,69,30.72,10.0,South,9.2,-,N/A,,Clear,180,2013-01-18 16:53:00
9:53 AM,15.1,3.9,61,30.66,10.0,South,10.4,-,N/A,,Clear,180,2013-01-18 17:53:00
10:53 AM,23.0,9.0,55,30.62,10.0,South,5.8,-,N/A,,Clear,180,2013-01-18 18:53:00
11:53 AM,28.0,9.0,45,30.54,10.0,Calm,Calm,-,N/A,,Clear,0,2013-01-18 19:53:00
12:53 PM,34.0,8.1,34,30.51,10.0,Calm,Calm,-,N/A,,Clear,0,2013-01-18 20:53:00
1:53 PM,33.1,12.0,42,30.51,10.0,North,8.1,-,N/A,,Clear,10,2013-01-18 21:53:00
2:53 PM,32.0,12.9,45,30.51,10.0,North,3.5,-,N/A,,Clear,350,2013-01-18 22:53:00
3:53 PM,30.9,10.9,43,30.55,10.0,Calm,Calm,-,N/A,,Clear,0,2013-01-18 23:53:00
4:53 PM,14.0,6.1,71,30.63,10.0,Calm,Calm,-,N/A,,Clear,0,2013-01-19 00:53:00
5:53 PM,10.9,5.0,77,30.66,10.0,South,11.5,-,N/A,,Clear,180,2013-01-19 01:53:00
6:53 PM,10.9,3.9,73,30.69,10.0,SSE,12.7,-,N/A,,Clear,160,2013-01-19 02:53:00
7:53 PM,7.0,1.0,77,30.69,10.0,South,10.4,-,N/A,,Clear,170,2013-01-19 03:53:00
8:53 PM,3.9,-2.0,76,30.68,10.0,South,12.7,-,N/A,,Clear,170,2013-01-19 04:53:00
9:53 PM,3.0,-2.9,76,30.65,10.0,South,12.7,-,N/A,,Clear,170,2013-01-19 05:53:00
10:53 PM,1.0,-5.1,75,30.61,10.0,South,12.7,-,N/A,,Clear,170,2013-01-19 06:53:00
11:53 PM,1.9,-5.1,72,30.58,10.0,SSE,15.0,-,N/A,,Clear,160,2013-01-19 07:53:00